Location: Moulis
(42.9609°N, 1.0909°E)
Time: 02:38:38
(UTC+00:00)

Cosmos 1486 Rocket - Visible Passes

Search period start: 17 March 2026 00:00
Search period end: 27 March 2026 00:00
Orbit: 755 x 778 km, 74.1° (Epoch: 16 March)

Date Brightness Start Highest point End Pass type
(mag) Time Alt. Az. Time Alt. Az. Time Alt. Az.
23 Mar 6.8 22:41:49 13° N 22:41:49 13° N 22:42:25 10° N visible
24 Mar 6.4 22:04:12 16° N 22:04:12 16° N 22:05:17 10° N visible
25 Mar 6.0 21:26:24 20° NNE 21:26:24 20° NNE 21:27:55 10° NNE visible
25 Mar 6.9 23:06:33 11° NW 23:06:33 11° NW 23:07:35 10° NNW visible
26 Mar 5.5 20:48:20 24° NNE 20:48:20 24° NNE 20:50:23 10° NNE visible
26 Mar 6.4 22:28:28 18° NW 22:28:28 18° NW 22:31:23 10° N visible
